This demonstration page uses our WeatherBlox Daily Observations layout. Learn more.

Left ArrowRight Arrow

Hourly Observations for September 19, 2015

Temp ( °F °C ) Dew Point ( °F °C ) Humidity (%) Winds ( mph kmh ) Pressure ( in mb ) Visibility ( mi km ) Precip ( " mm )
12:59 am 00:59 Mostly Clear with Mist and Fog 69 20.6 66 18.9 90 90 Calm 29.99 1016 5 8 0.00 0.00
1:59 am 01:59 Mostly Clear with Fog 69 20.6 67 19.4 93 93 Calm 29.98 1015 7 11 0.00 0.00
2:42 am 02:42 Clear with Fog 68 20 65 18.3 90 90 Calm 29.97 1015 2 3 0.00 0.00
2:45 am 02:45 Mostly Clear with Mist and Fog 68 20 66 18.9 93 93 Calm 29.97 1015 1 2 0.00 0.00
2:59 am 02:59 Mostly Clear with Mist and Fog 68 20 66 18.9 93 93 Calm 29.96 1015 2 3 0.00 0.00
3:59 am 03:59 Partly Cloudy with Mist and Fog 68 20 65 18.3 90 90 Calm 29.96 1015 2 3 0.00 0.00
4:59 am 04:59 Mostly Clear with Mist and Fog 68 20 66 18.9 93 93 Calm 29.96 1015 5 8 0.00 0.00
5:59 am 05:59 Mostly Clear with Fog 67 19.4 65 18.3 93 93 Calm 29.95 1014 9 14 0.00 0.00
6:30 am 06:30 Mostly Clear with Mist and Fog 68 20 66 18.9 93 93 Calm 29.97 1015 1 2 0.00 0.00
6:36 am 06:36 Mostly Clear with Mist and Fog 67 19.4 65 18.3 93 93 Calm 29.97 1015 2 2 0.00 0.00
6:41 am 06:41 Mostly Clear with Mist and Fog 68 20 65 18.3 90 90 Calm 29.97 1015 2 3 0.00 0.00
6:59 am 06:59 Partly Cloudy with Mist and Fog 66 18.9 65 18.3 96 96 Calm 29.96 1014 2 3 0.00 0.00
7:28 am 07:28 Partly Cloudy with Mist and Fog 68 20 67 19.4 96 96 Calm 29.97 1015 3 5 0.00 0.00
7:59 am 07:59 Partly Cloudy with Patchy Fog 72 22.2 70 21.1 94 94 Calm 29.96 1015 7 11 0.00 0.00
8:59 am 08:59 Partly Cloudy 78 25.6 70 21.1 76 76 E 5 7 29.96 1015 10 16 0.00 0.00
9:59 am 09:59 Partly Cloudy 81 27.2 68 20 65 65 ENE 7 11 29.98 1015 10 16 0.00 0.00
10:59 am 10:59 Partly Cloudy 82 27.8 69 20.6 65 65 ENE 8 13 29.97 1015 10 16 0.00 0.00
11:59 am 11:59 Partly Cloudy 82 27.8 66 18.9 58 58 E 9 15 29.97 1015 10 16 0.00 0.00
1:59 pm 13:59 Partly Cloudy 84 28.9 69 20.6 61 61 ENE 9 15 29.93 1014 10 16 0.00 0.00
2:59 pm 14:59 Partly Cloudy 84 28.9 70 21.1 63 63 ENE 12 19 29.92 1013 10 16 0.00 0.00
3:59 pm 15:59 Partly Cloudy 83 28.3 69 20.6 63 63 E 13 20 29.91 1013 10 16 0.00 0.00
4:59 pm 16:59 Partly Cloudy 82 27.8 69 20.6 65 65 E 13 20 29.90 1013 10 16 0.00 0.00
5:59 pm 17:59 Partly Cloudy 81 27.2 69 20.6 67 67 E 9 15 29.90 1012 10 16 0.00 0.00
6:59 pm 18:59 Partly Cloudy 78 25.6 67 19.4 69 69 ESE 6 9 29.89 1012 10 16 0.00 0.00
7:59 pm 19:59 Mostly Clear 76 24.4 68 20 77 77 ESE 6 9 29.90 1013 10 16 0.00 0.00
8:59 pm 20:59 Mostly Clear 74 23.3 69 20.6 85 85 ESE 5 7 29.90 1013 10 16 0.00 0.00
9:59 pm 21:59 Mostly Clear 73 22.8 69 20.6 87 87 SE 5 7 29.91 1013 10 16 0.00 0.00
10:59 pm 22:59 Mostly Clear 72 22.2 69 20.6 91 91 Calm 29.91 1013 8 13 0.00 0.00
11:59 pm 23:59 Mostly Clear with Fog 69 20.6 67 19.4 93 93 Calm 29.90 1013 7 11 0.00 0.00

Powered by AerisWeather